Weather Roundup
Issued by NWS Chicago, IL

Home | Current Version | Previous Version | Text Only | Print | Product List | Glossary Off
Versions: 1 2 3 4 5 6 7 8 9 10 11 12 13 14 15 16 17 18 19 20 21 22 23 24 25 26 27 28 29 30 31 32 33 34 35 36 37 38 39 40 41 42 43 44 45 46 47 48 49 50

149
NZUS59 KLOT 192003
HRRLOT

CHICAGO AREA WEATHER ROUNDUP
NATIONAL WEATHER SERVICE CHICAGO/ROMEOVILLE IL
200 PM CST SUN FEB 19 2017

NOTE: "FAIR" INDICATES FEW OR NO CLOUDS BELOW 12,000 FEET WITH NO
SIGNIFICANT WEATHER AND/OR OBSTRUCTIONS TO VISIBILITY.

* THESE STATIONS ARE NOT UNDER NWS QUALITY CONTROL. THEY ALSO MAY NOT
  REPORT WEATHER SUCH AS PRECIPITATION OR FOG.

ILZ005-006-012>014-019>023-192100-
NORTHEAST ILLINOIS

CITY           SKY/WX    TMP DP  RH WIND       PRES   REMARKS
OHARE          MOSUNNY   68  31  25 N3        30.03F
MIDWAY         PTSUNNY   65  31  28 E7        30.04F
AURORA         SUNNY     67  40  37 SE6       30.04F
LANSING*       SUNNY     65  40  39 CALM      30.05S
JOLIET*        SUNNY     67  41  37 S7        30.04F
WAUKEGAN       SUNNY     53  33  46 E7        30.05F
DUPAGE AIRPORT SUNNY     67  35  30 MISG      30.03F
WHEELING       CLOUDY    61  32  33 NE9       30.05F
KANKAKEE*      SUNNY     62  44  52 CALM      30.07S
LEWIS AIRPORT* SUNNY     66  44  45 S6        30.05S
NORTHERLY ISL    N/A     51  29  42 NE3         N/A
$$

WIZ051-052-058>065-066-070>072-192100-
SOUTHEAST WISCONSIN

CITY           SKY/WX    TMP DP  RH WIND       PRES   REMARKS
MILWAUKEE      MOSUNNY   54  31  41 E8        30.06S
KENOSHA*       SUNNY     58  32  37 SE8       30.05S
RACINE*        SUNNY     53  30  41 E8        30.07S
WAUKESHA       SUNNY     63  27  25 SW6       30.04F
$$

INZ001>003-010>013-019-020-192100-
NORTHWEST INDIANA

CITY           SKY/WX    TMP DP  RH WIND       PRES   REMARKS
GARY*          MOSUNNY   57  28  33 CALM      30.06F
MICHIGAN CITY* NOT AVBL
RENSSELAER*    NOT AVBL
VALPARAISO     SUNNY     65  36  34 VRB7      30.06
$$

LMZ740>746-192100-
SOUTHERN LAKE MICHIGAN

STATION/POSITION TIME  SKY/WX   TEMP WIND        PRES    VSBY
                                AIR  DIR/SP/G
                 (UTC)          (F)  (DEG/KT/KT) (MB)    (MI)
HARRISON CRIB    1940            49   80/  6/  6   N/A
BURNHAM HARBOR   2000            50   30/  3/  4   N/A
CALUMET HARBOR   1930            50   50/  5/  8 1017.4S
BURNS HARBOR     1940            45   60/  8/  8 1018.6S
MICHIGAN CITY    1940            42   10/  4/  5   N/A
$$

ABBREVIATIONS USED IN REMARKS
   TC - TEMPERATURE IN CELSIUS
  WCI - WIND CHILL INDEX
   HX - HEAT INDEX
  VSB - VISIBILITY
$$




USA.gov is the U.S. government's official web portal to all federal, state and local government web resources and services.